Location: Fauquembergues
(50.6005°N, 2.0987°E)
Time: 10:35:46
(UTC+00:00)

Okean 3 - Pass Details

Date: 14 July 2020
Orbit: 576 x 601 km, 82.5° (Epoch: 05 August)

Event Time Altitude Azimuth Distance (km) Brightness Sun altitude
Rises 01:49:00 0° 349° (NNW) 2,806 7.8 -13.7°
Reaches altitude 10° 01:51:12 10° 348° (NNW) 1,903 6.8 -13.5°
Maximum altitude 01:55:24 82° 262° (W) 593 3.4 -13.2°
Enters shadow 01:58:48 15° 175° (S) 1,581 5.2 -13.0°
